Weather History for KTYS - March, 2011

Change the Weather History Date:

Sunday, March 6, 2011

  Actual Average Record
Temperature  
Mean Temperature 44 °F 48 °F  
Max Temperature 54 °F 58 °F 79 °F (1956)
Min Temperature 34 °F 37 °F 12 °F (1960)
Degree Days  
Heating Degree Days 21 18  
Month to date heating degree days 78 110  
Since 1 July heating degree days 3053 3006  
Cooling Degree Days 0 0  
Month to date cooling degree days 0 0  
Year to date cooling degree days 0 0  
Moisture  
Dew Point 37 °F    
Average Humidity 88    
Maximum Humidity 100    
Minimum Humidity 76    
Precipitation  
Precipitation 1.37 in 0.15 in 2.92 in (1967)
Month to date precipitation 1.92 0.85  
Year to date precipitation 9.43 9.43  
Snow  
Snow T in 0.00 in - ()
Month to date snowfall T 0.2  
Since 1 July snowfall 12.3 5.3  
Snow Depth 0.00 in    
Sea Level Pressure  
Sea Level Pressure 30.01 in    
Wind  
Wind Speed 9 mph (North)    
Max Wind Speed 16 mph    
Max Gust Speed 21 mph    
Visibility 6 miles    
Events Rain , Snow    
T = Trace of Precipitation, MM = Missing Value Source: NWS Daily Summary

Daily Weather History Graph

Daily Weather History Graph

Search for Another Location

Airport or City:

Trip Planner

Search our weather history database for the weather conditions in past years. The results will help you decide how hot, cold, wet, or windy it might be!

Date:

Astronomy

Mar. 06, 2011 Rise Set
Actual Time 6:59 AM EST 6:35 PM EST
Civil Twilight 6:34 AM EST 7:00 PM EST
Nautical Twilight 6:04 AM EST 7:30 PM EST
Astronomical Twilight 5:34 AM EST 8:00 PM EST
Moon 7:27 AM EST (3/6) 8:31 PM EST (3/6)
Length of Visible Light 12h 26m
Length of Day
11h 35m
Waxing Crescent, 3% of the Moon is Illuminated
Mar 6
Waxing Crescent
Mar 12
First Quarter
Mar 19
Full
Mar 26
Last Quarter
Apr 3
New

Hourly Weather History & Observations

Time (EST) Temp. Windchill Dew Point Humidity Pressure Visibility Wind Dir Wind Speed Gust Speed Precip Events Conditions
12:12 AM 53.6 °F - 53.6 °F 100% 29.89 in 2.0 mi NNW 3.5 mph - 0.06 in Rain Rain
12:23 AM 53.6 °F - 53.6 °F 100% 29.89 in 2.0 mi Calm Calm - 0.09 in Rain Rain
12:26 AM 53.6 °F - 53.6 °F 100% 29.89 in 1.5 mi Calm Calm - 0.11 in Rain Rain
12:53 AM 54.0 °F - 53.1 °F 97% 29.87 in 1.5 mi Calm Calm - 0.19 in Rain Light Rain
1:37 AM 53.6 °F - 53.6 °F 100% 29.88 in 2.5 mi North 5.8 mph - 0.14 in Rain Rain
1:53 AM 54.0 °F - 51.1 °F 90% 29.88 in 2.0 mi North 6.9 mph - 0.22 in Rain Heavy Rain
2:01 AM 53.6 °F - 51.8 °F 94% 29.89 in 2.0 mi NNW 8.1 mph - 0.04 in Rain Heavy Rain
2:36 AM 53.6 °F - 51.8 °F 94% 29.90 in 3.0 mi North 8.1 mph - 0.17 in Rain Rain
2:49 AM 50.0 °F - 48.2 °F 94% 29.91 in 2.0 mi North 15.0 mph 20.7 mph 0.28 in Rain Rain
2:53 AM 48.9 °F - 46.0 °F 90% 29.91 in 2.0 mi North 12.7 mph - 0.30 in Rain Rain
3:12 AM 46.4 °F 41.5 °F 44.6 °F 93% 29.92 in 3.0 mi North 10.4 mph - 0.06 in Rain Light Rain
3:53 AM 45.0 °F 39.7 °F 42.1 °F 90% 29.92 in 4.0 mi North 10.4 mph - 0.15 in Rain Rain
4:12 AM 44.6 °F 40.7 °F 41.0 °F 87% 29.93 in 6.0 mi North 6.9 mph - 0.04 in Rain Light Rain
4:26 AM 44.6 °F 38.4 °F 39.2 °F 81% 29.94 in 9.0 mi North 12.7 mph 17.3 mph 0.06 in Rain Light Rain
4:53 AM 43.0 °F 36.8 °F 39.0 °F 86% 29.95 in 8.0 mi NNE 11.5 mph - 0.08 in Rain Light Rain
5:14 AM 42.8 °F 38.6 °F 39.2 °F 87% 29.96 in 7.0 mi North 6.9 mph - 0.03 in Rain Light Rain
5:40 AM 42.8 °F 37.5 °F 39.2 °F 87% 29.97 in 5.0 mi North 9.2 mph - 0.09 in Rain Rain
5:53 AM 41.0 °F 35.2 °F 37.9 °F 89% 29.97 in 4.0 mi North 9.2 mph - 0.13 in Rain Rain
6:22 AM 41.0 °F 34.7 °F 37.4 °F 87% 29.99 in 7.0 mi North 10.4 mph - 0.07 in Rain Light Rain
6:44 AM 39.2 °F 33.0 °F 37.4 °F 93% 30.00 in 5.0 mi North 9.2 mph - 0.11 in Rain Rain
6:53 AM 39.9 °F 32.5 °F 36.0 °F 86% 30.00 in 7.0 mi North 12.7 mph - 0.13 in Rain Rain
7:29 AM 37.4 °F 31.4 °F 35.6 °F 93% 30.00 in 6.0 mi North 8.1 mph - 0.05 in Rain , Snow Rain
7:53 AM 37.9 °F 32.1 °F 34.0 °F 86% 30.01 in 8.0 mi North 8.1 mph - 0.06 in Rain , Snow Light Snow
8:32 AM 35.6 °F 29.2 °F 33.8 °F 93% 30.02 in 2.0 mi North 8.1 mph - 0.05 in Rain , Snow Snow
8:36 AM 35.6 °F 28.6 °F 33.8 °F 93% 30.01 in 1.8 mi North 9.2 mph - 0.06 in Snow Snow
8:42 AM 35.6 °F 28.6 °F 33.8 °F 93% 30.01 in 1.2 mi North 9.2 mph - 0.07 in Snow Snow
8:50 AM 34.0 °F 27.2 °F 32.0 °F 92% 30.00 in 0.8 mi North 8.1 mph - 0.09 in Snow Snow
8:59 AM 33.8 °F 27.0 °F 32.0 °F 93% 30.00 in 0.8 mi North 8.1 mph - 0.01 in Rain , Snow Rain
9:04 AM 33.8 °F 28.6 °F 32.0 °F 93% 30.00 in 1.2 mi North 5.8 mph - 0.02 in Rain , Snow Light Rain
9:08 AM 33.8 °F 27.7 °F 32.0 °F 93% 30.01 in 2.0 mi North 6.9 mph - 0.02 in Rain , Snow Light Rain
9:19 AM 35.6 °F 30.7 °F 33.8 °F 93% 30.02 in 5.0 mi NNW 5.8 mph - 0.03 in Rain , Snow Light Rain
9:36 AM 35.6 °F 29.9 °F 33.8 °F 93% 30.03 in 10.0 mi NW 6.9 mph - 0.03 in   Overcast
9:43 AM 35.6 °F 29.9 °F 33.8 °F 93% 30.03 in 10.0 mi NNW 6.9 mph - 0.03 in   Overcast
9:53 AM 37.0 °F 29.8 °F 33.1 °F 86% 30.02 in 10.0 mi North 10.4 mph - 0.03 in   Overcast
10:53 AM 37.9 °F 30.5 °F 33.1 °F 83% 30.02 in 10.0 mi North 11.5 mph - 0.00 in Rain Light Rain
11:34 AM 37.4 °F 32.1 °F 33.8 °F 87% 30.03 in 4.0 mi NNW 6.9 mph 16.1 mph 0.00 in Rain , Snow Light Rain
11:53 AM 37.0 °F 30.4 °F 34.0 °F 89% 30.05 in 4.0 mi NNW 9.2 mph - 0.01 in Rain Light Rain
12:06 PM 37.4 °F 33.8 °F 33.8 °F 87% 30.05 in 4.0 mi NNW 4.6 mph - 0.00 in Rain Light Rain
12:22 PM 37.4 °F 32.1 °F 35.6 °F 93% 30.05 in 10.0 mi NNW 6.9 mph - 0.00 in   Overcast
12:53 PM 37.9 °F 30.9 °F 33.1 °F 83% 30.05 in 10.0 mi NNW 10.4 mph - 0.00 in   Overcast
1:14 PM 37.4 °F 33.8 °F 33.8 °F 87% 30.05 in 10.0 mi NNW 4.6 mph - N/A   Overcast
1:44 PM 37.4 °F 32.1 °F 33.8 °F 87% 30.04 in 10.0 mi North 6.9 mph - N/A   Overcast
1:53 PM 39.0 °F 32.8 °F 34.0 °F 82% 30.05 in 10.0 mi North 9.2 mph - N/A   Overcast
2:07 PM 37.4 °F 31.4 °F 33.8 °F 87% 30.05 in 10.0 mi North 8.1 mph - N/A   Overcast
2:53 PM 39.0 °F 34.0 °F 34.0 °F 82% 30.05 in 10.0 mi North 6.9 mph - N/A   Overcast
3:00 PM 39.2 °F 34.2 °F 33.8 °F 81% 30.05 in 10.0 mi North 6.9 mph - N/A   Overcast
3:13 PM 39.2 °F 33.6 °F 33.8 °F 81% 30.06 in 10.0 mi NNW 8.1 mph - N/A   Overcast
3:53 PM 39.0 °F 32.3 °F 33.1 °F 79% 30.07 in 10.0 mi North 10.4 mph 16.1 mph N/A   Overcast
4:08 PM 39.2 °F 32.5 °F 33.8 °F 81% 30.06 in 10.0 mi North 10.4 mph - N/A   Overcast
4:15 PM 39.2 °F 32.5 °F 33.8 °F 81% 30.06 in 10.0 mi NNE 10.4 mph - N/A   Overcast
4:53 PM 37.9 °F 32.1 °F 32.0 °F 79% 30.09 in 10.0 mi North 8.1 mph - N/A   Overcast
5:53 PM 37.9 °F 33.5 °F 32.0 °F 79% 30.09 in 10.0 mi NNE 5.8 mph - N/A   Overcast
6:53 PM 37.9 °F 32.7 °F 30.9 °F 76% 30.09 in 10.0 mi North 6.9 mph - N/A   Overcast
7:53 PM 37.9 °F 33.5 °F 30.0 °F 73% 30.12 in 10.0 mi North 5.8 mph - N/A   Overcast
8:53 PM 37.0 °F 29.8 °F 30.0 °F 76% 30.14 in 10.0 mi North 10.4 mph - N/A   Overcast
9:53 PM 37.0 °F 33.3 °F 30.0 °F 76% 30.14 in 10.0 mi NNE 4.6 mph - N/A   Overcast
10:53 PM 37.0 °F 31.0 °F 30.0 °F 76% 30.14 in 10.0 mi North 8.1 mph - N/A   Overcast
11:53 PM 37.0 °F 31.0 °F 30.0 °F 76% 30.14 in 10.0 mi North 8.1 mph - N/A   Overcast